When you browse on this site, cookies collect data to enhance your experience and personalize the content and advertising you see.
Visit our Privacy Policy to learn more. By continuing to use the site, you agree to this use of cookies and data.
  • In Czech Republic
  • List of Countries
  • For 7 days
  • Water Temperature
  • Satellite Maps
  • Weather Map
  • Weather Widgets
  • user-avatar
    Login

    Hourly Weather La Massana

    Today, 16 December, Sunday

    Time Temperature Precipitation Wind Pressure Humidity
    00:00 +3°C° 0.1 mm 1 mps 610 mmHg 90%
    01:00 +3°C° 0.3 mm 1 mps 610 mmHg 91%
    02:00 +2°C° 0.3 mm 1 mps 610 mmHg 92%
    03:00 +2°C° 0.3 mm 1 mps 609 mmHg 93%
    04:00 +2°C° 0.1 mm 1 mps 609 mmHg 93%
    05:00 +2°C° 0.1 mm 1 mps 609 mmHg 93%
    06:00 +1°C° 0.1 mm 0 mps 609 mmHg 93%
    07:00 +1°C° 1.4 mm 0 mps 609 mmHg 94%
    08:00 +1°C° 1.4 mm 0 mps 609 mmHg 94%
    09:00 +2°C° 1.4 mm 0 mps 609 mmHg 94%
    10:00 +3°C° 0.7 mm 1 mps 609 mmHg 92%
    11:00 +3°C° 0.7 mm 1 mps 609 mmHg 91%
    12:00 +3°C° 0.7 mm 2 mps 609 mmHg 90%
    13:00 +3°C° 0.1 mm 2 mps 609 mmHg 91%
    14:00 +2°C° 0.1 mm 2 mps 609 mmHg 91%
    15:00 +2°C° 0.1 mm 2 mps 609 mmHg 92%
    16:00 +1°C° 0.5 mm 2 mps 609 mmHg 94%
    17:00 +1°C° 0.5 mm 2 mps 609 mmHg 95%
    18:00 -1°C° 0.5 mm 2 mps 609 mmHg 97%
    19:00 -1°C° 0.7 mm 2 mps 609 mmHg 94%
    20:00 -2°C° 0.7 mm 2 mps 610 mmHg 92%
    21:00 -2°C° 0.7 mm 3 mps 610 mmHg 89%
    22:00 -4°C° 0 mm 3 mps 610 mmHg 88%
    23:00 -5°C° 0 mm 3 mps 610 mmHg 87%

    Tomorrow, 17 December, Monday

    Time Temperature Precipitation Wind Pressure Humidity
    00:00 -6°C° 0 mm 3 mps 610 mmHg 86%
    01:00 -6°C° 0 mm 3 mps 611 mmHg 84%
    02:00 -6°C° 0 mm 3 mps 611 mmHg 83%
    03:00 -7°C° 0 mm 3 mps 611 mmHg 81%
    04:00 -7°C° 0 mm 3 mps 611 mmHg 81%
    05:00 -7°C° 0 mm 3 mps 611 mmHg 80%
    06:00 -7°C° 0 mm 3 mps 612 mmHg 80%
    07:00 -6°C° 0 mm 3 mps 612 mmHg 77%
    08:00 -4°C° 0 mm 2 mps 613 mmHg 75%
    09:00 -3°C° 0 mm 2 mps 614 mmHg 73%
    10:00 -2°C° 0 mm 2 mps 615 mmHg 68%
    11:00 -1°C° 0 mm 2 mps 615 mmHg 62%
    12:00 +3°C° 0 mm 1 mps 616 mmHg 57%
    13:00 +3°C° 0 mm 1 mps 616 mmHg 59%
    14:00 +2°C° 0 mm 1 mps 616 mmHg 61%
    15:00 +1°C° 0 mm 0 mps 616 mmHg 63%
    16:00 +1°C° 0 mm 1 mps 615 mmHg 67%
    17:00 -1°C° 0 mm 1 mps 614 mmHg 72%
    18:00 -2°C° 0 mm 1 mps 614 mmHg 76%
    19:00 -2°C° 0 mm 1 mps 614 mmHg 75%
    20:00 -2°C° 0 mm 1 mps 614 mmHg 73%
    21:00 -2°C° 0 mm 1 mps 614 mmHg 72%
    22:00 -2°C° 0 mm 1 mps 614 mmHg 72%
    23:00 -3°C° 0 mm 1 mps 613 mmHg 73%

    Day after tomorrow, 18 December, Tuesday

    Time Temperature Precipitation Wind Pressure Humidity
    00:00 -5°C° 0 mm 2 mps 613 mmHg 74%
    01:00 -5°C° 0 mm 2 mps 613 mmHg 73%
    02:00 -5°C° 0 mm 2 mps 612 mmHg 72%
    03:00 -5°C° 0 mm 2 mps 612 mmHg 71%
    04:00 -5°C° 0 mm 2 mps 612 mmHg 70%
    05:00 -5°C° 0 mm 2 mps 611 mmHg 70%
    06:00 -4°C° 0 mm 2 mps 611 mmHg 69%
    07:00 -3°C° 0 mm 2 mps 612 mmHg 66%
    08:00 -2°C° 0 mm 2 mps 612 mmHg 62%
    09:00 -1°C° 0 mm 2 mps 612 mmHg 58%
    10:00 0°C° 0 mm 3 mps 612 mmHg 55%
    11:00 +1°C° 0 mm 3 mps 613 mmHg 53%
    12:00 +2°C° 0 mm 3 mps 613 mmHg 50%
    13:00 +2°C° 0 mm 3 mps 612 mmHg 53%
    14:00 +1°C° 0 mm 3 mps 612 mmHg 55%
    15:00 +1°C° 0 mm 3 mps 611 mmHg 58%
    16:00 +1°C° 0 mm 2 mps 611 mmHg 60%
    17:00 -1°C° 0 mm 2 mps 610 mmHg 62%
    18:00 -2°C° 0 mm 2 mps 610 mmHg 64%
    19:00 -2°C° 0 mm 2 mps 610 mmHg 66%
    20:00 -2°C° 0 mm 2 mps 610 mmHg 67%
    21:00 -2°C° 0 mm 2 mps 610 mmHg 69%
    22:00 -2°C° 0 mm 2 mps 610 mmHg 72%
    23:00 -2°C° 0 mm 2 mps 610 mmHg 76%

    19 December, Wednesday

    Time Temperature Precipitation Wind Pressure Humidity
    00:00 -2°C° 0 mm 2 mps 609 mmHg 79%
    01:00 0°C° 0.1 mm 1 mps 609 mmHg 81%
    02:00 0°C° 0.1 mm 1 mps 609 mmHg 82%
    03:00 0°C° 0.1 mm 1 mps 609 mmHg 84%
    04:00 -1°C° 0.1 mm 1 mps 609 mmHg 86%
    05:00 -1°C° 0.1 mm 1 mps 609 mmHg 88%
    06:00 -1°C° 0.1 mm 1 mps 608 mmHg 90%
    07:00 -1°C° 0 mm 1 mps 609 mmHg 88%
    08:00 0°C° 0 mm 1 mps 609 mmHg 87%
    09:00 0°C° 0 mm 1 mps 610 mmHg 86%
    10:00 +1°C° 0.1 mm 1 mps 610 mmHg 82%
    11:00 +2°C° 0.1 mm 1 mps 610 mmHg 78%
    12:00 +1°C° 0.1 mm 2 mps 610 mmHg 74%
    13:00 +1°C° 0.3 mm 2 mps 610 mmHg 75%
    14:00 -1°C° 0.3 mm 2 mps 610 mmHg 76%
    15:00 -1°C° 0.3 mm 2 mps 610 mmHg 77%
    16:00 -2°C° 0.3 mm 2 mps 610 mmHg 79%
    17:00 -3°C° 0.3 mm 2 mps 610 mmHg 82%
    18:00 -4°C° 0.3 mm 2 mps 610 mmHg 85%
    19:00 -4°C° 0 mm 2 mps 610 mmHg 83%
    20:00 -5°C° 0 mm 2 mps 610 mmHg 81%
    21:00 -6°C° 0 mm 2 mps 610 mmHg 79%
    22:00 -6°C° 0 mm 2 mps 610 mmHg 78%
    23:00 -6°C° 0 mm 2 mps 610 mmHg 76%

    20 December, Thursday

    Time Temperature Precipitation Wind Pressure Humidity
    00:00 -6°C° 0 mm 2 mps 610 mmHg 74%
    01:00 -6°C° 0 mm 2 mps 610 mmHg 75%
    02:00 -6°C° 0 mm 2 mps 610 mmHg 76%
    03:00 -7°C° 0 mm 2 mps 610 mmHg 77%
    04:00 -7°C° 0 mm 2 mps 611 mmHg 77%
    05:00 -7°C° 0 mm 2 mps 611 mmHg 78%
    06:00 -7°C° 0 mm 2 mps 611 mmHg 78%
    07:00 -6°C° 0 mm 2 mps 612 mmHg 75%
    08:00 -5°C° 0 mm 2 mps 612 mmHg 72%
    09:00 -4°C° 0 mm 2 mps 613 mmHg 69%
    10:00 -3°C° 0 mm 2 mps 614 mmHg 65%
    11:00 -1°C° 0 mm 2 mps 614 mmHg 61%
    12:00 +1°C° 0 mm 2 mps 615 mmHg 57%
    13:00 +1°C° 0 mm 2 mps 615 mmHg 60%
    14:00 +1°C° 0 mm 2 mps 614 mmHg 63%
    15:00 -1°C° 0 mm 2 mps 614 mmHg 66%
    16:00 -2°C° 0 mm 2 mps 614 mmHg 72%
    17:00 -4°C° 0 mm 2 mps 613 mmHg 77%
    18:00 -3°C° 0 mm 1 mps 613 mmHg 83%
    19:00 -6°C° 0 mm 2 mps 613 mmHg 79%
    20:00 -6°C° 0 mm 2 mps 613 mmHg 76%
    21:00 -6°C° 0 mm 2 mps 614 mmHg 73%
    22:00 -6°C° 0 mm 2 mps 613 mmHg 71%
    23:00 -4°C° 0 mm 1 mps 613 mmHg 69%

    21 December, Friday

    Time Temperature Precipitation Wind Pressure Humidity
    00:00 -4°C° 0 mm 1 mps 613 mmHg 67%
    01:00 -4°C° 0 mm 1 mps 613 mmHg 66%
    02:00 -4°C° 0 mm 1 mps 613 mmHg 65%
    03:00 -4°C° 0 mm 1 mps 613 mmHg 65%
    04:00 -3°C° 0 mm 1 mps 613 mmHg 64%
    05:00 -3°C° 0 mm 1 mps 613 mmHg 64%
    06:00 -3°C° 0 mm 1 mps 613 mmHg 63%
    07:00 -2°C° 0 mm 1 mps 613 mmHg 61%
    08:00 -1°C° 0 mm 1 mps 614 mmHg 59%
    09:00 +1°C° 0 mm 1 mps 615 mmHg 57%
    10:00 +2°C° 0 mm 1 mps 615 mmHg 57%
    11:00 +4°C° 0 mm 1 mps 615 mmHg 56%
    12:00 +5°C° 0 mm 1 mps 616 mmHg 55%
    13:00 +5°C° 0 mm 1 mps 615 mmHg 59%
    14:00 +5°C° 0 mm 1 mps 615 mmHg 62%
    15:00 +4°C° 0 mm 1 mps 615 mmHg 66%
    16:00 +4°C° 0 mm 1 mps 615 mmHg 71%
    17:00 +3°C° 0 mm 1 mps 615 mmHg 76%
    18:00 +1°C° 0 mm 2 mps 614 mmHg 81%
    19:00 +1°C° 0.2 mm 2 mps 615 mmHg 82%
    20:00 +2°C° 0.2 mm 2 mps 615 mmHg 83%
    21:00 +2°C° 0.2 mm 2 mps 616 mmHg 84%
    22:00 +3°C° 0 mm 1 mps 615 mmHg 85%
    23:00 +3°C° 0 mm 1 mps 615 mmHg 86%
    Show more